Regional Weather Roundup
Issued by NWS Bismarck, ND

Home | Current Version | Previous Version | Text Only | Print | Product List | Glossary On
Versions: 1 2 3 4 5 6 7 8 9 10 11 12 13 14 15 16 17 18 19 20 21 22 23 24 25 26 27 28 29 30 31 32 33 34 35 36 37 38 39 40 41 42 43 44 45 46 47 48 49 50
000
ASUS43 KBIS 230902
RWRBIS

NWR BROADCAST TEXT
NATIONAL WEATHER SERVICE BISMARCK ND
300 AM CST FRI FEB 23 2018

NOTE: "FAIR" INDICATES FEW OR NO CLOUDS BELOW 12,000 FEET WITH NO
SIGNIFICANT WEATHER AND/OR OBSTRUCTIONS TO VISIBILITY.


CITY           SKY/WX    TMP DP  RH WIND       PRES   REMARKS
WILLISTON      FAIR      -9 -14  78 SW7       30.25S WCI -24
MINOT          FAIR       2  -4  76 W9        30.19R WCI -13
MINOT AFB      CLOUDY     1  -5  77 NW14      30.18R WCI -18
BISMARCK       MOCLDY    11   4  73 NW12      30.19R WCI  -3
DICKINSON      FAIR      -2  -7  79 NW13      30.13F WCI -20
GARRISON         N/A     -3  -8  79 NW13      30.18S WCI -22
HETTINGER ARPT CLOUDY     1  -5  75 NW12      30.15S WCI -16
JAMESTOWN      LGT SNOW  18  15  88 NW14      30.13S FOG     WCI   4
CARRINGTON     FLURRIES  12   9  85 NW14      30.17S WCI  -3
HAZEN            N/A      1  -4  78 SW6       30.23S WCI -10
LINTON         LGT SNOW  16  12  86 NW8       30.18R WCI   5
MANDAN         CLOUDY     9   3  78 NW13      30.16F WCI  -7
OAKES            N/A     18  18 100 N8        30.11F WCI   7
RUGBY          PTSUNNY   -2  -6  84 W8        30.16F WCI -17
STANLEY        FAIR      -8 -11  84 W5        30.20S WCI -19
TIOGA          FAIR      -9 -11  92 W9        30.20S WCI -27
WATFORD CITY   FAIR     -13 -17  84 SW6       30.23S WCI -27
$$

CITY           SKY/WX    TMP DP  RH WIND       PRES   REMARKS
GRAND FORKS    LGT SNOW  18  15  88 N10       30.17F FOG     WCI   6
GRAND FORKS AF FLURRIES  16  13  88 N8        30.17F WCI   5
DEVILS LAKE    CLOUDY     7   3  84 NW7       30.16S WCI  -5
FARGO          LGT SNOW  20  19  96 N9        30.13F FOG     WCI   9
CANDO          PTSUNNY    7   1  78 NW8       30.17S WCI  -6
CAVALIER         N/A     10   5  79 NW5       30.17F WCI   2
GRAFTON        FAIR      14  10  85 NW5       30.20F WCI   6
GWINNER          N/A     19  19 100 N8        30.10F FOG     WCI   9
LANGDON        FAIR       5   1  85 NW8       30.13F WCI  -8
ROLLA          CLOUDY     7   0  72 NW9       30.13F WCI  -7
WALHALLA       FAIR       9   3  78 CALM      30.17F
$$

CITY           SKY/WX    TMP DP  RH WIND       PRES   REMARKS
ABERDEEN       CLOUDY    16  16 100 NW6       30.13R FOG     WCI   7
MOBRIDGE       MOCLDY    13   9  84 NW8       30.13R WCI   2
BUFFALO          N/A     -1  -8  72 W12       30.06F WCI -18
RAPID CITY     CLEAR     -1  -6  79 NW8       30.12R WCI -15
GLASGOW        MOCLDY   -15 -19  82 NW8       30.23F WCI -32
SIDNEY         CLEAR    -16 -21  78 SW5       30.28R WCI -29
WOLF POINT     PTCLDY   -12 -19  71 W5        30.28S WCI -24
GLENDIVE       CLEAR     -7 -15  68 CALM      30.24R
MILES CITY     MOCLDY   -13 -15  91 S6        30.24S WCI -27
BAKER          PTCLDY    -7  -9  91 W5        30.18S WCI -18
$$

CITY           SKY/WX    TMP DP  RH WIND       PRES   REMARKS
BILLINGS       PTCLDY     3  -2  79 SW6       30.14F WCI  -8
GREAT FALLS    PTCLDY    -7 -11  83 SW8       30.12F WCI -23
ESTEVAN        LGT SNOW  -2  -6  84 W5        30.21S WCI -12
$$




USA.gov is the U.S. government's official web portal to all federal, state and local government web resources and services.